| time (UTC) | temp C | wind direction | speed KPH | gust KPH | rain 1hr cm | rain 24hr cm | rain mn cm | humidity % | barometer mb |
| 20260503201040 | 21 | 242 | 0.0 | 1.6 | 0.00 | 0.00 | 0.00 | 45 | 1018.9 |
| 20260503200058 | 21 | 200 | 8.0 | 11.3 | 0.00 | 0.00 | 0.00 | 46 | 1019.2 |
| 20260503195040 | 21 | 180 | 8.0 | 9.7 | 0.00 | 0.00 | 0.00 | 44 | 1019.3 |
| 20260503194939 | 21 | 200 | 9.7 | 11.3 | 0.00 | 0.00 | 0.00 | 44 | 1019.2 |
| 20260503193939 | 21 | 213 | 9.7 | 12.9 | 0.00 | 0.00 | 0.00 | 46 | 1019.4 |
| 20260503191939 | 20 | 225 | 3.2 | 4.8 | 0.00 | 0.00 | 0.00 | 47 | 1020.1 |
| 20260503185939 | 21 | 180 | 0.0 | 0.0 | 0.00 | 0.00 | 0.00 | 47 | 1020.3 |
| 20260503184942 | 20 | 249 | 0.0 | 4.8 | 0.00 | 0.00 | 0.00 | 48 | 1020.4 |
| 20260503183042 | 20 | 149 | 4.8 | 6.4 | 0.00 | 0.00 | 0.00 | 45 | 1020.6 |
| 20260503182139 | 20 | 241 | 1.6 | 3.2 | 0.00 | 0.00 | 0.00 | 45 | 1020.9 |
| 20260503181142 | 21 | 334 | 3.2 | 8.0 | 0.00 | 0.00 | 0.00 | 47 | 1020.9 |
| 20260503180140 | 21 | 289 | 3.2 | 4.8 | 0.00 | 0.00 | 0.00 | 46 | 1021.0 |
| 20260503175142 | 20 | 277 | 0.0 | 1.6 | 0.00 | 0.00 | 0.00 | 48 | 1021.2 |
| 20260503173242 | 20 | 304 | 3.2 | 4.8 | 0.00 | 0.00 | 0.00 | 48 | 1021.2 |
| 20260503171339 | 18 | 296 | 0.0 | 0.0 | 0.00 | 0.00 | 0.00 | 52 | 1021.4 |
| 20260503170340 | 18 | 96 | 6.4 | 8.0 | 0.00 | 0.00 | 0.00 | 49 | 1021.5 |
| 20260503130642 | 13 | 346 | 0.0 | 3.2 | 0.00 | 0.00 | 0.00 | 97 | 1021.7 |
| 20260503110757 | 6 | 180 | 0.0 | 0.0 | 0.00 | 0.00 | 0.00 | 98 | 1019.8 |
| 20260503090141 | 7 | 180 | 0.0 | 0.0 | 0.00 | 0.00 | 0.00 | 98 | 1018.8 |
| 20260503081141 | 7 | 180 | 0.0 | 0.0 | 0.00 | 0.00 | 0.00 | 97 | 1018.4 |
| 20260503080239 | 7 | 180 | 0.0 | 0.0 | 0.00 | 0.00 | 0.00 | 98 | 1018.3 |
| 20260503071240 | 8 | 180 | 0.0 | 0.0 | 0.00 | 0.00 | 0.00 | 98 | 1017.9 |
| 20260503070241 | 8 | 180 | 0.0 | 0.0 | 0.00 | 0.00 | 0.00 | 98 | 1017.9 |
| 20260503053539 | 10 | 180 | 0.0 | 0.0 | 0.00 | 0.00 | 0.00 | 98 | 1017.9 |
| 20260503052540 | 10 | 180 | 0.0 | 0.0 | 0.00 | 0.00 | 0.00 | 97 | 1018.0 |
| 20260503051540 | 10 | 180 | 0.0 | 0.0 | 0.00 | 0.00 | 0.00 | 97 | 1017.9 |
| 20260503050542 | 10 | 180 | 0.0 | 0.0 | 0.00 | 0.00 | 0.00 | 97 | 1018.0 |
| 20260503045539 | 10 | 180 | 0.0 | 0.0 | 0.00 | 0.00 | 0.00 | 98 | 1018.0 |
| 20260503044540 | 10 | 180 | 0.0 | 0.0 | 0.00 | 0.00 | 0.00 | 98 | 1017.8 |
| 20260503043541 | 10 | 180 | 0.0 | 0.0 | 0.00 | 0.00 | 0.00 | 98 | 1017.6 |
| 20260503042538 | 11 | 180 | 0.0 | 1.6 | 0.00 | 0.00 | 0.00 | 98 | 1017.6 |
| 20260503041540 | 11 | 180 | 0.0 | 0.0 | 0.00 | 0.00 | 0.00 | 98 | 1017.3 |
| 20260503040540 | 11 | 180 | 0.0 | 0.0 | 0.00 | 0.00 | 0.00 | 98 | 1017.1 |
| 20260503035621 | 10 | 180 | 0.0 | 0.0 | 0.00 | 0.00 | 0.00 | 97 | 1017.5 |
| 20260503033624 | 10 | 180 | 0.0 | 0.0 | 0.00 | 0.00 | 0.00 | 96 | 1016.9 |
| 20260503032622 | 10 | 180 | 0.0 | 0.0 | 0.00 | 0.00 | 0.00 | 97 | 1016.9 |
| 20260503031622 | 10 | 180 | 0.0 | 0.0 | 0.00 | 0.00 | 0.00 | 97 | 1016.8 |
| 20260503030622 | 10 | 180 | 0.0 | 0.0 | 0.00 | 0.00 | 0.00 | 96 | 1016.8 |
| 20260503025624 | 10 | 180 | 0.0 | 0.0 | 0.00 | 0.00 | 0.00 | 97 | 1016.6 |
| 20260503024622 | 10 | 180 | 0.0 | 0.0 | 0.00 | 0.00 | 0.00 | 97 | 1016.2 |
| 20260503023621 | 10 | 180 | 0.0 | 0.0 | 0.00 | 0.00 | 0.00 | 96 | 1016.1 |
| 20260503022623 | 10 | 180 | 0.0 | 0.0 | 0.00 | 0.00 | 0.00 | 97 | 1016.0 |
| 20260503020723 | 11 | 180 | 0.0 | 1.6 | 0.00 | 0.00 | 0.00 | 96 | 1015.8 |
| 20260503015739 | 11 | 180 | 0.0 | 0.0 | 0.00 | 0.00 | 0.00 | 96 | 1015.8 |
| 20260503014823 | 11 | 180 | 0.0 | 0.0 | 0.00 | 0.00 | 0.00 | 96 | 1015.7 |
| 20260503013825 | 11 | 180 | 0.0 | 0.0 | 0.00 | 0.00 | 0.00 | 96 | 1015.7 |
| 20260503011923 | 11 | 180 | 0.0 | 0.0 | 0.00 | 0.00 | 0.00 | 95 | 1015.6 |
| 20260503010924 | 11 | 180 | 0.0 | 0.0 | 0.00 | 0.00 | 0.00 | 95 | 1015.5 |
| 20260503005121 | 12 | 180 | 0.0 | 1.6 | 0.00 | 0.00 | 0.00 | 93 | 1015.2 |
| 20260503004123 | 12 | 180 | 0.0 | 0.0 | 0.00 | 0.00 | 0.00 | 93 | 1014.9 |
| 20260503003140 | 12 | 180 | 0.0 | 0.0 | 0.00 | 0.00 | 0.00 | 93 | 1014.8 |
| 20260503002224 | 12 | 180 | 0.0 | 0.0 | 0.00 | 0.00 | 0.00 | 93 | 1014.7 |
| 20260503001322 | 12 | 180 | 0.0 | 0.0 | 0.00 | 0.00 | 0.00 | 91 | 1014.6 |
| 20260503000321 | 12 | 180 | 0.0 | 1.6 | 0.00 | 0.00 | 0.00 | 92 | 1014.7 |
| 20260502235421 | 12 | 180 | 1.6 | 1.6 | 0.00 | 0.00 | 0.00 | 92 | 1014.6 |
| 20260502234438 | 12 | 180 | 0.0 | 1.6 | 0.00 | 0.00 | 0.00 | 92 | 1014.4 |
| 20260502232521 | 12 | 180 | 1.6 | 3.2 | 0.00 | 0.00 | 0.00 | 92 | 1014.1 |
| 20260502231524 | 12 | 180 | 3.2 | 3.2 | 0.00 | 0.00 | 0.00 | 92 | 1014.0 |
| 20260502231423 | 12 | 180 | 1.6 | 3.2 | 0.00 | 0.00 | 0.00 | 91 | 1014.0 |
| 20260502230424 | 12 | 180 | 3.2 | 4.8 | 0.00 | 0.00 | 0.00 | 92 | 1014.1 |
| 20260502225424 | 12 | 180 | 3.2 | 4.8 | 0.00 | 0.00 | 0.00 | 92 | 1014.0 |
| 20260502224521 | 12 | 180 | 3.2 | 4.8 | 0.00 | 0.00 | 0.00 | 92 | 1014.1 |
| 20260502222524 | 13 | 180 | 1.6 | 1.6 | 0.00 | 0.00 | 0.00 | 91 | 1014.0 |
| 20260502221523 | 13 | 180 | 3.2 | 4.8 | 0.00 | 0.00 | 0.00 | 92 | 1013.9 |
| 20260502220523 | 13 | 180 | 4.8 | 6.4 | 0.00 | 0.00 | 0.00 | 92 | 1013.8 |
| 20260502215523 | 13 | 180 | 1.6 | 3.2 | 0.00 | 0.00 | 0.00 | 90 | 1013.7 |
| 20260502214521 | 13 | 180 | 3.2 | 4.8 | 0.00 | 0.00 | 0.00 | 92 | 1013.6 |
| 20260502213522 | 13 | 180 | 1.6 | 4.8 | 0.00 | 0.00 | 0.00 | 92 | 1013.4 |
| 20260502212523 | 13 | 180 | 1.6 | 4.8 | 0.00 | 0.00 | 0.00 | 91 | 1013.3 |
| 20260502212424 | 13 | 180 | 0.0 | 1.6 | 0.00 | 0.00 | 0.00 | 92 | 1013.4 |
| 20260502211439 | 12 | 180 | 3.2 | 4.8 | 0.00 | 0.00 | 0.00 | 92 | 1013.3 |
| 20260502210522 | 13 | 180 | 4.8 | 8.0 | 0.00 | 0.00 | 0.00 | 92 | 1013.3 |
| 20260502205522 | 13 | 180 | 3.2 | 8.0 | 0.00 | 0.00 | 0.00 | 92 | 1013.2 |
| 20260502204523 | 13 | 360 | 3.2 | 4.8 | 0.00 | 0.00 | 0.00 | 92 | 1013.2 |
| 20260502203523 | 13 | 19 | 6.4 | 9.7 | 0.00 | 0.00 | 0.00 | 92 | 1013.1 |
| 20260502201621 | 13 | 3 | 4.8 | 8.0 | 0.00 | 0.00 | 0.00 | 93 | 1013.0 |